This is the latest recevied weather packets stored in our database for station/object DC1MPP-9. If no packets are shown the sender has not sent any weather packets the latest 10 day(s).
| Time | Temp. | Humidity | Pressure | Rain* | Wind** | Luminosity | Snow |
|---|---|---|---|---|---|---|---|
| 1777751757 | 16.11° C | 60% | 960 hPa | - | - | - | - |
| 1777751275 | 16.67° C | 59% | 960 hPa | - | - | - | - |
| 1777750552 | 16.67° C | 55% | 960 hPa | - | - | - | - |
| 1777750311 | 17.22° C | 53% | 960 hPa | - | - | - | - |
| 1777749346 | 17.78° C | 51% | 960 hPa | - | - | - | - |
| 1777748864 | 18.33° C | 53% | 960 hPa | - | - | - | - |
| 1777748623 | 18.33° C | 51% | 960 hPa | - | - | - | - |
| 1777748141 | 18.89° C | 51% | 960 hPa | - | - | - | - |
| 1777746936 | 20° C | 46% | 960 hPa | - | - | - | - |
| 1777746454 | 20.56° C | 44% | 960 hPa | - | - | - | - |
| 1777745972 | 21.11° C | 41% | 960 hPa | - | - | - | - |
| 1777745730 | 21.11° C | 41% | 960 hPa | - | - | - | - |
| 1777744766 | 21.67° C | 33% | 960 hPa | - | - | - | - |
| 1777744525 | 22.22° C | 31% | 960 hPa | - | - | - | - |
| 1777743561 | 22.78° C | 31% | 960 hPa | - | - | - | - |
| 1777743320 | 22.78° C | 30% | 960 hPa | - | - | - | - |
| 1777743079 | 22.78° C | 29% | 960 hPa | - | - | - | - |
| 1777742356 | 23.33° C | 27% | 960 hPa | - | - | - | - |
| 1777742114 | 23.33° C | 27% | 960 hPa | - | - | - | - |
| 1777741632 | 23.33° C | 27% | 960 hPa | - | - | - | - |
| 1777741150 | 23.89° C | 26% | 960 hPa | - | - | - | - |
| 1777739945 | 24.44° C | 26% | 960 hPa | - | - | - | - |
| 1777739704 | 24.44° C | 25% | 960 hPa | - | - | - | - |
| 1777739463 | 24.44° C | 24% | 960 hPa | - | - | - | - |
| 1777739222 | 25° C | 24% | 960 hPa | - | - | - | - |
* Rain since midnight (hover to see other rain measurements)
** Current wind speed in m/s (hover to see current wind gust speed)